Epoch,demod_status_bits,ebno,lock_status,signal_level,viterbi_ber
1664866301,C;S;V;F,13.0,0x00c000,-38.2,1.51e-7
1664866302,C;S;V;F,13.1,0x00c000,-38.1,1.51e-7
1664866303,C;S;V;F,13.8,0x00c000,-37.6,0.00e-0
1664866304,C;S;V;F,13.3,0x00c000,-38.1,0.00e-0
1664866305,C;S;V;F,13.3,0x00c000,-38.0,0.00e-0
1664866306,C;S;V;F,13.4,0x00c000,-38.0,0.00e-0
1664866307,C;S;V;F,13.8,0x00c000,-37.7,0.00e-0
1664866308,C;S;V;F,13.5,0x00c000,-37.9,
1664866309,,13.4,0x00c000,-38.0,0.00e-0
1664866310,C;S;V;F,13.6,0x00c000,-37.7,0.00e-0
1664866311,C;S;V;F,13.4,0x00c000,-38.1,0.00e-0
1664866312,C;S;V;F,,0x00c000,-37.8,0.00e-0
1664866313,C;S;V;F,13.5,0x00c000,,0.00e-0
1664866314,C;S;V;F,14.0,0x00c000,-37.7,0.00e-0
1664866315,C;S;V;F,13.5,0x00c000,-37.9,0.00e-0
1664866316,C;S;V;F,13.2,0x00c000,-38.3,1.51e-7
1664866317,C;S;V;F,14.0,0x00c000,-37.9,1.51e-7
1664866318,C;S;V;F,14.1,0x00c000,-37.4,0.00e-0
1664866319,C;S;V;F,14.2,0x00c000,-37.2,0.00e-0
1664866320,C;S;V;F,14.1,0x00c000,-37.5,0.00e-0
1664866321,C;S;V;F,13.9,0x00c000,-37.5,0.00e-0
1664866322,C;S;V;F,13.9,0x00c000,-37.5,
1664866323,,14.1,0x00c000,-37.3,0.00e-0
1664866324,C;S;V;F,14.7,0x00c000,-37.0,0.00e-0
1664866325,C;S;V;F,14.7,0x00c000,-37.2,0.00e-0
1664866326,C;S;V;F,,0x00c000,-37.1,0.00e-0
1664866327,C;S;V;F,14.5,0x00c000,,0.00e-0
1664866328,C;S;V;F,14.8,0x00c000,-36.8,0.00e-0
1664866329,C;S;V;F,15.0,0x00c000,-36.6,0.00e-0
1664866330,C;S;V;F,14.3,0x00c000,-37.1,0.00e-0
1664866331,C;S;V;F,14.9,0x00c000,-36.8,0.00e-0
1664866332,C;S;V;F,14.5,0x00c000,-37.1,0.00e-0
1664866333,C;S;V;F,14.7,0x00c000,-36.8,0.00e-0
1664866334,C;S;V;F,14.9,0x00c000,-36.7,
1664866335,,14.9,0x00c000,-36.9,0.00e-0
1664866336,C;S;V;F,15.0,0x00c000,-36.8,0.00e-0
1664866337,C;S;V;F,,0x00c000,-36.7,0.00e-0
1664866338,C;S;V;F,15.0,0x00c000,-36.7,0.00e-0
1664866339,C;S;V;F,15.0,0x00c000,,0.00e-0
1664866340,C;S;V;F,15.0,0x00c000,-36.6,0.00e-0
1664866341,C;S;V;F,15.1,0x00c000,-36.4,0.00e-0
1664866342,C;S;V;F,14.8,0x00c000,-36.8,0.00e-0
1664866343,C;S;V;F,14.8,0x00c000,-36.8,0.00e-0
1664866344,C;S;V;F,15.0,0x00c000,-36.4,0.00e-0
1664866345,C;S;V;F,15.1,0x00c000,-36.4,0.00e-0
1664866346,C;S;V;F,14.8,0x00c000,-36.6,0.00e-0
1664866347,C;S;V;F,15.0,0x00c000,-36.6,
1664866348,C;S;V;F,15.0,0x00c000,-36.8,0.00e-0
1664866349,,15.0,0x00c000,-36.8,0.00e-0
1664866350,C;S;V;F,15.0,0x00c000,-36.8,0.00e-0
1664866351,C;S;V;F,15.1,0x00c000,-36.6,0.00e-0
1664866352,C;S;V;F,,0x00c000,-36.8,0.00e-0
1664866353,C;S;V;F,15.0,0x00c000,-36.6,0.00e-0
1664866354,C;S;V;F,15.1,0x00c000,,0.00e-0
1664866355,C;S;V;F,15.0,0x00c000,-36.7,0.00e-0
1664866356,C;S;V;F,14.9,0x00c000,-36.8,0.00e-0
1664866358,C;S;V;F,15.0,0x00c000,-36.8,0.00e-0
1664866362,,15.4,0x00c000,-36.4,
1664866363,C;S;V;F,15.3,0x00c000,-36.4,0.00e-0
1664866364,C;S;V;F,,0x00c000,-36.3,0.00e-0
1664866365,C;S;V;F,15.4,0x00c000,,0.00e-0
1664866366,C;S;V;F,15.7,0x00c000,-36.3,0.00e-0
1664866367,C;S;V;F,15.6,0x00c000,-36.0,0.00e-0
1664866368,C;S;V;F,15.5,0x00c000,-36.1,0.00e-0
1664866369,C;S;V;F,16.1,0x00c000,-36.1,0.00e-0
1664866370,C;S;V;F,15.8,0x00c000,-36.1,0.00e-0
1664866371,C;S;V;F,15.7,0x00c000,-36.0,0.00e-0
1664866372,C;S;V;F,15.8,0x00c000,-36.0,0.00e-0
1664866373,C;S;V;F,15.9,0x00c000,-36.0,0.00e-0
1664866374,C;S;V;F,15.9,0x00c000,-35.8,
1664866375,,15.9,0x00c000,-36.2,0.00e-0
1664866376,C;S;V;F,15.9,0x00c000,-35.6,0.00e-0
1664866377,C;S;V;F,,0x00c000,-36.0,0.00e-0
1664866378,C;S;V;F,15.8,0x00c000,,0.00e-0
1664866379,C;S;V;F,15.9,0x00c000,-35.9,0.00e-0
1664866380,C;S;V;F,15.9,0x00c000,-35.9,0.00e-0
1664866381,C;S;V;F,15.9,0x00c000,-35.7,0.00e-0
1664866382,C;S;V;F,16.0,0x00c000,-35.9,0.00e-0
1664866383,C;S;V;F,15.8,0x00c000,-35.9,0.00e-0
1664866384,C;S;V;F,15.9,0x00c000,-35.9,0.00e-0
1664866385,C;S;V;F,15.7,0x00c000,-36.0,0.00e-0
1664866386,C;S;V;F,15.9,0x00c000,-35.6,0.00e-0
1664866387,,16.1,0x00c000,-35.9,
1664866388,C;S;V;F,15.9,0x00c000,-35.9,0.00e-0
1664866389,C;S;V;F,,0x00c000,-36.0,0.00e-0
1664866390,C;S;V;F,15.9,0x00c000,-35.9,0.00e-0
1664866391,C;S;V;F,15.9,0x00c000,,0.00e-0
1664866392,C;S;V;F,15.8,0x00c000,-36.2,0.00e-0
1664866393,C;S;V;F,15.9,0x00c000,-36.0,0.00e-0
1664866394,C;S;V;F,15.8,0x00c000,-36.0,0.00e-0
1664866395,C;S;V;F,15.7,0x00c000,-36.1,0.00e-0
1664866396,C;S;V;F,15.9,0x00c000,-36.0,0.00e-0
1664866397,C;S;V;F,15.8,0x00c000,-36.0,0.00e-0
1664866398,C;S;V;F,15.7,0x00c000,-36.0,0.00e-0
1664866399,C;S;V;F,15.9,0x00c000,-35.9,
1664866400,,15.8,0x00c000,-35.8,0.00e-0
1664866401,C;S;V;F,16.0,0x00c000,-35.7,0.00e-0
1664866402,C;S;V;F,16.0,0x00c000,-35.8,0.00e-0
1664866403,C;S;V;F,16.1,0x00c000,-35.9,0.00e-0
1664866404,C;S;V;F,,0x00c000,-35.8,0.00e-0
1664866405,C;S;V;F,16.1,0x00c000,-35.6,0.00e-0
1664866406,C;S;V;F,16.0,0x00c000,-35.6,0.00e-0
1664866407,C;S;V;F,16.2,0x00c000,-35.6,0.00e-0
1664866408,C;S;V;F,16.3,0x00c000,,0.00e-0
1664866409,C;S;V;F,16.2,0x00c000,-35.6,0.00e-0
1664866410,C;S;V;F,16.1,0x00c000,-35.6,0.00e-0
1664866411,C;S;V;F,16.3,0x00c000,-35.6,0.00e-0
1664866412,C;S;V;F,16.3,0x00c000,-35.7,0.00e-0
1664866413,C;S;V;F,16.2,0x00c000,-35.8,0.00e-0
1664866414,C;S;V;F,16.3,0x00c000,-35.5,0.00e-0
1664866415,C;S;V;F,16.3,0x00c000,-35.3,0.00e-0
1664866416,C;S;V;F,16.1,0x00c000,-35.5,0.00e-0
1664866417,C;S;V;F,16.3,0x00c000,-35.3,0.00e-0
1664866418,C;S;V;F,16.7,0x00c000,-35.5,
1664866419,,16.4,0x00c000,-35.5,0.00e-0
1664866420,C;S;V;F,,,,0.00e-0
1664866422,C;S;V;F,16.3,0x00c000,-35.3,0.00e-0
1664866423,C;S;V;F,16.3,0x00c000,-35.5,0.00e-0
1664866424,C;S;V;F,16.2,0x00c000,-35.6,0.00e-0
1664866425,C;S;V;F,16.3,0x00c000,-35.6,0.00e-0
1664866426,C;S;V;F,16.3,0x00c000,-35.7,0.00e-0
1664866427,C;S;V;F,16.5,0x00c000,-35.6,0.00e-0
1664866428,C;S;V;F,16.4,0x00c000,-35.6,
1664866429,,16.3,0x00c000,-35.6,0.00e-0
1664866430,C;S;V;F,16.4,0x00c000,-35.6,0.00e-0
1664866431,C;S;V;F,,0x00c000,-35.5,0.00e-0
1664866432,C;S;V;F,16.4,0x00c000,-35.5,0.00e-0
1664866433,C;S;V;F,16.6,0x00c000,,0.00e-0
1664866434,C;S;V;F,16.4,0x00c000,-35.5,0.00e-0
1664866435,C;S;V;F,16.7,0x00c000,-35.4,0.00e-0
1664866436,C;S;V;F,16.6,0x00c000,-35.2,0.00e-0
1664866437,C;S;V;F,16.8,0x00c000,-35.0,0.00e-0
1664866438,C;S;V;F,16.6,0x00c000,-35.2,0.00e-0
1664866439,C;S;V;F,16.7,0x00c000,-35.0,0.00e-0
1664866440,C;S;V;F,16.9,0x00c000,-35.0,0.00e-0
1664866441,C;S;V;F,16.8,0x00c000,-35.2,0.00e-0
1664866442,,16.7,0x00c000,-35.0,
1664866443,C;S;V;F,16.9,0x00c000,-34.9,0.00e-0
1664866444,C;S;V;F,16.9,0x00c000,-34.8,0.00e-0
1664866445,C;S;V;F,16.8,0x00c000,-34.9,0.00e-0
1664866446,C;S;V;F,,0x00c000,-34.8,0.00e-0
1664866447,C;S;V;F,17.1,0x00c000,-34.8,0.00e-0
1664866448,C;S;V;F,17.0,0x00c000,-34.8,0.00e-0
1664866449,C;S;V;F,17.0,0x00c000,,0.00e-0
1664866450,C;S;V;F,16.9,0x00c000,-34.8,0.00e-0
1664866451,C;S;V;F,17.0,0x00c000,-34.8,0.00e-0
1664866452,C;S;V;F,16.9,0x00c000,-34.8,0.00e-0
1664866453,C;S;V;F,17.0,0x00c000,-34.8,0.00e-0
1664866454,C;S;V;F,17.2,0x00c000,-34.7,0.00e-0
1664866455,C;S;V;F,17.4,0x00c000,-34.7,0.00e-0
1664866456,C;S;V;F,17.1,0x00c000,-34.6,0.00e-0
1664866457,C;S;V;F,17.5,0x00c000,-34.4,0.00e-0
1664866458,C;S;V;F,17.4,0x00c000,-34.4,
1664866459,,17.4,0x00c000,-34.4,0.00e-0
1664866460,C;S;V;F,17.4,0x00c000,-34.3,0.00e-0
1664866461,C;S;V;F,17.3,0x00c000,-34.4,0.00e-0
1664866462,C;S;V;F,17.3,0x00c000,-34.3,0.00e-0
1664866463,C;S;V;F,,0x00c000,-34.3,0.00e-0
1664866464,C;S;V;F,17.4,0x00c000,,0.00e-0
1664866465,C;S;V;F,17.4,0x00c000,-34.3,0.00e-0
1664866466,C;S;V;F,17.6,0x00c000,-34.3,0.00e-0
1664866467,C;S;V;F,17.5,0x00c000,-34.3,0.00e-0
1664866468,C;S;V;F,17.4,0x00c000,-34.4,0.00e-0
1664866469,C;S;V;F,17.3,0x00c000,-34.5,0.00e-0
1664866470,C;S;V;F,17.2,0x00c000,-34.6,0.00e-0
1664866471,,17.2,0x00c000,-34.7,
1664866472,C;S;V;F,17.4,0x00c000,-34.5,0.00e-0
1664866473,C;S;V;F,,0x00c000,-34.5,0.00e-0
1664866474,C;S;V;F,17.5,0x00c000,-34.4,0.00e-0
1664866475,C;S;V;F,17.2,0x00c000,,0.00e-0
1664866476,C;S;V;F,17.2,0x00c000,-34.7,0.00e-0
1664866477,C;S;V;F,17.2,0x00c000,-34.7,0.00e-0
1664866478,C;S;V;F,17.4,0x00c000,-34.8,0.00e-0
1664866479,C;S;V;F,17.3,0x00c000,-34.8,0.00e-0
1664866480,C;S;V;F,17.0,0x00c000,-34.8,0.00e-0
1664866481,C;S;V;F,16.8,0x00c000,-34.8,0.00e-0
1664866482,C;S;V;F,17.0,0x00c000,-34.8,0.00e-0
1664866484,,16.7,0x00c000,-34.6,
1664866485,C;S;V;F,,0x00c000,-34.4,0.00e-0
1664866486,C;S;V;F,17.1,0x00c000,,0.00e-0
1664866487,C;S;V;F,17.7,0x00c000,-34.3,0.00e-0
1664866488,C;S;V;F,17.4,0x00c000,-34.2,0.00e-0
1664866489,C;S;V;F,17.6,0x00c000,-33.9,0.00e-0
1664866490,C;S;V;F,17.7,0x00c000,-34.0,0.00e-0
1664866491,C;S;V;F,17.6,0x00c000,-34.0,0.00e-0
1664866492,C;S;V;F,17.7,0x00c000,-33.9,0.00e-0
1664866493,C;S;V;F,17.5,0x00c000,-34.0,0.00e-0
1664866494,C;S;V;F,17.7,0x00c000,-34.0,0.00e-0
1664866495,C;S;V;F,18.0,0x00c000,-33.8,0.00e-0
1664866496,C;S;V;F,17.7,0x00c000,-33.7,0.00e-0
1664866497,C;S;V;F,18.0,0x00c000,-33.6,
1664866498,,18.3,0x00c000,-33.3,0.00e-0
1664866499,C;S;V;F,18.2,0x00c000,-33.2,0.00e-0
1664866500,C;S;V;F,18.1,0x00c000,-33.2,0.00e-0
1664866501,C;S;V;F,,0x00c000,-33.1,0.00e-0
1664866502,C;S;V;F,18.3,0x00c000,-33.2,0.00e-0
1664866503,C;S;V;F,18.3,0x00c000,,0.00e-0
1664866504,C;S;V;F,18.1,0x00c000,-33.2,0.00e-0
1664866505,C;S;V;F,18.2,0x00c000,-33.3,0.00e-0
1664866506,C;S;V;F,18.1,0x00c000,-33.5,0.00e-0
1664866507,C;S;V;F,18.2,0x00c000,-33.4,0.00e-0
1664866508,C;S;V;F,18.3,0x00c000,-33.4,0.00e-0
1664866509,C;S;V;F,18.2,0x00c000,-33.4,0.00e-0
1664866510,C;S;V;F,18.3,0x00c000,-33.2,0.00e-0
1664866511,C;S;V;F,18.4,0x00c000,-33.2,0.00e-0
1664866512,C;S;V;F,18.2,0x00c000,-33.1,0.00e-0
1664866513,C;S;V;F,18.1,0x00c000,-33.2,
1664866514,,18.1,0x00c000,-33.2,0.00e-0
1664866515,C;S;V;F,18.3,0x00c000,-33.3,0.00e-0
1664866516,C;S;V;F,18.3,0x00c000,-33.2,0.00e-0
1664866517,C;S;V;F,,0x00c000,-33.4,0.00e-0
1664866518,C;S;V;F,18.1,0x00c000,-33.5,0.00e-0
1664866519,C;S;V;F,18.0,0x00c000,,0.00e-0
1664866520,C;S;V;F,18.2,0x00c000,-33.5,0.00e-0
1664866521,C;S;V;F,18.1,0x00c000,-33.4,0.00e-0
1664866522,C;S;V;F,18.1,0x00c000,-33.4,0.00e-0
1664866523,C;S;V;F,18.3,0x00c000,-33.3,0.00e-0
1664866524,C;S;V;F,18.0,0x00c000,-33.6,0.00e-0
1664866525,C;S;V;F,17.9,0x00c000,-33.6,0.00e-0
1664866526,C;S;V;F,18.1,0x00c000,-33.8,
1664866527,,17.8,0x00c000,-33.8,0.00e-0
1664866528,C;S;V;F,17.8,0x00c000,-34.0,0.00e-0
1664866529,C;S;V;F,17.5,0x00c000,-34.3,0.00e-0
1664866530,C;S;V;F,,0x00c000,-34.6,0.00e-0
1664866531,C;S;V;F,17.5,0x00c000,,0.00e-0
1664866532,C;S;V;F,17.3,0x00c000,-34.7,0.00e-0
1664866533,C;S;V;F,17.3,0x00c000,-34.7,0.00e-0
1664866534,C;S;V;F,17.3,0x00c000,-34.7,0.00e-0
1664866535,C;S;V;F,17.5,0x00c000,-34.5,0.00e-0
1664866536,C;S;V;F,17.3,0x00c000,-34.4,0.00e-0
1664866537,C;S;V;F,17.6,0x00c000,-34.3,0.00e-0
1664866538,C;S;V;F,17.5,0x00c000,-34.1,0.00e-0
1664866539,C;S;V;F,17.8,0x00c000,-34.2,0.00e-0
1664866540,C;S;V;F,17.6,0x00c000,-34.3,0.00e-0
1664866541,C;S;V;F,17.6,0x00c000,-34.3,0.00e-0
1664866542,C;S;V;F,17.7,0x00c000,-34.3,
1664866543,C;S;V;F,17.5,0x00c000,-34.3,0.00e-0
1664866544,,17.6,0x00c000,-34.7,0.00e-0
1664866545,C;S;V;F,,,,0.00e-0
1664866547,C;S;V;F,17.4,0x00c000,-34.4,
1664866548,,17.4,0x00c000,-34.6,0.00e-0
1664866549,C;S;V;F,17.3,0x00c000,-34.7,0.00e-0
1664866550,C;S;V;F,17.4,0x00c000,-34.7,0.00e-0
1664866551,C;S;V;F,17.1,0x00c000,-34.9,0.00e-0
1664866552,C;S;V;F,17.3,0x00c000,-34.9,0.00e-0
1664866553,C;S;V;F,,0x00c000,-35.3,0.00e-0
1664866554,C;S;V;F,16.9,0x00c000,,0.00e-0
1664866555,C;S;V;F,16.7,0x00c000,-35.5,0.00e-0
1664866556,C;S;V;F,16.9,0x00c000,-35.2,0.00e-0
1664866557,C;S;V;F,16.6,0x00c000,-35.4,0.00e-0
1664866558,C;S;V;F,16.5,0x00c000,-35.6,0.00e-0
1664866559,C;S;V;F,16.4,0x00c000,-35.9,0.00e-0
1664866560,C;S;V;F,16.3,0x00c000,-36.0,0.00e-0
1664866561,C;S;V;F,16.2,0x00c000,-36.0,0.00e-0
1664866562,C;S;V;F,16.2,0x00c000,-36.0,0.00e-0
1664866563,C;S;V;F,16.1,0x00c000,-36.2,
1664866564,,16.0,0x00c000,-36.3,0.00e-0
1664866565,C;S;V;F,16.1,0x00c000,-36.3,0.00e-0
1664866566,C;S;V;F,15.8,0x00c000,-36.4,0.00e-0
1664866567,C;S;V;F,15.7,0x00c000,-36.5,0.00e-0
1664866568,C;S;V;F,,0x00c000,-36.6,0.00e-0
1664866569,C;S;V;F,15.6,0x00c000,-37.0,0.00e-0
1664866570,C;S;V;F,15.5,0x00c000,,0.00e-0
1664866571,C;S;V;F,15.1,0x00c000,-37.5,0.00e-0
1664866572,C;S;V;F,15.0,0x00c000,-37.4,0.00e-0
1664866573,C;S;V;F,14.7,0x00c000,-37.3,0.00e-0
1664866574,C;S;V;F,14.6,0x00c000,-37.6,0.00e-0
1664866575,C;S;V;F,14.6,0x00c000,-37.6,0.00e-0
1664866576,C;S;V;F,14.3,0x00c000,-37.9,0.00e-0
1664866577,C;S;V;F,14.3,0x00c000,-38.0,0.00e-0
1664866578,C;S;V;F,14.1,0x00c000,-38.0,0.00e-0
1664866579,C;S;V;F,14.1,0x00c000,-38.1,0.00e-0
1664866580,C;S;V;F,14.0,0x00c000,-38.0,
1664866581,,14.1,0x00c000,-38.0,0.00e-0
1664866582,C;S;V;F,14.2,0x00c000,-37.9,0.00e-0
1664866583,C;S;V;F,,0x00c000,-37.9,0.00e-0
1664866584,C;S;V;F,14.4,0x00c000,-37.7,0.00e-0
1664866585,C;S;V;F,14.4,0x00c000,,0.00e-0
1664866586,C;S;V;F,14.4,0x00c000,-37.7,0.00e-0
1664866587,C;S;V;F,14.4,0x00c000,-37.8,0.00e-0
1664866588,C;S;V;F,14.0,0x00c000,-38.0,0.00e-0
1664866589,C;S;V;F,14.1,0x00c000,-38.0,0.00e-0
1664866590,C;S;V;F,14.1,0x00c000,-38.3,0.00e-0
1664866591,C;S;V;F,13.9,0x00c000,-38.4,0.00e-0
1664866592,C;S;V;F,13.7,0x00c000,-38.5,0.00e-0
1664866593,C;S;V;F,13.5,0x00c000,-38.7,0.00e-0
1664866594,C;S;V;F,13.5,0x00c000,-38.8,0.00e-0
1664866595,C;S;V;F,13.6,0x00c000,-38.7,0.00e-0
1664866596,,13.7,0x00c000,-38.6,
1664866597,C;S;V;F,13.8,0x00c000,-38.4,0.00e-0
1664866598,C;S;V;F,,0x00c000,-38.0,0.00e-0
1664866599,C;S;V;F,13.9,0x00c000,-38.0,0.00e-0
1664866600,C;S;V;F,14.3,0x00c000,,0.00e-0
1664866601,C;S;V;F,14.5,0x00c000,-37.6,0.00e-0
1664866602,C;S;V;F,14.6,0x00c000,-37.5,0.00e-0
1664866603,C;S;V;F,14.8,0x00c000,-37.3,0.00e-0
1664866604,C;S;V;F,14.9,0x00c000,-37.2,0.00e-0
1664866605,C;S;V;F,14.9,0x00c000,-37.1,0.00e-0
1664866606,C;S;V;F,15.0,0x00c000,-37.3,0.00e-0
1664866607,C;S;V;F,14.8,0x00c000,-37.5,0.00e-0
1664866609,C;S;V;F,14.4,0x00c000,-37.9,0.00e-0
1664866610,C;S;V;F,14.1,0x00c000,-38.4,
1664866611,,13.2,0x00c000,-38.7,0.00e-0
1664866612,C;S;V;F,12.8,0x00c000,-38.8,0.00e-0
1664866613,C;S;V;F,,0x00c000,-38.8,0.00e-0
1664866614,C;S;V;F,13.1,0x00c000,-38.8,0.00e-0
1664866615,C;S;V;F,13.2,0x00c000,,0.00e-0
1664866616,C;S;V;F,13.2,0x00c000,-38.6,0.00e-0
1664866617,C;S;V;F,13.5,0x00c000,-38.3,0.00e-0
1664866618,C;S;V;F,13.4,0x00c000,-38.4,0.00e-0
1664866619,C;S;V;F,13.3,0x00c000,-38.4,0.00e-0
1664866620,C;S;V;F,13.3,0x00c000,-38.4,0.00e-0
1664866621,C;S;V;F,12.9,0x00c000,-38.7,1.51e-7
1664866622,C;S;V;F,12.9,0x00c000,-38.8,4.54e-7
1664866623,C;S;V;F,12.4,0x00c000,-39.2,1.21e-6
1664866624,,12.0,0x00c000,-39.5,
1664866625,C;S;V;F,11.8,0x00c000,-39.3,2.57e-6
1664866626,C;S;V;F,12.2,0x00c000,-38.9,4.68e-6
1664866627,C;S;V;F,12.7,0x00c000,-38.5,3.02e-6
1664866628,C;S;V;F,,0x00c000,-38.2,1.36e-6
1664866629,C;S;V;F,13.0,0x00c000,-38.3,7.57e-7
1664866630,C;S;V;F,12.9,0x00c000,-38.7,4.54e-7
1664866631,C;S;V;F,12.8,0x00c000,,6.06e-7
1664866632,C;S;V;F,12.3,0x00c000,-38.8,9.09e-7
1664866633,C;S;V;F,12.0,0x00c000,-39.4,5.59e-6
1664866634,C;S;V;F,11.4,0x00c000,-39.7,1.28e-5
1664866635,C;S;V;F,11.2,0x00c000,-39.9,1.90e-5
1664866636,C;S;V;F,10.9,0x00c000,-39.6,2.39e-5
1664866637,C;S;V;F,11.6,0x00c000,-39.1,1.61e-5
1664866638,C;S;V;F,12.6,0x00c000,-38.7,3.78e-6
1664866639,C;S;V;F,13.2,0x00c000,-38.2,1.21e-6
1664866640,C;S;V;F,13.0,0x00c000,-38.0,3.03e-7
1664866641,C;S;V;F,13.1,0x00c000,-38.0,
1664866642,,12.9,0x00c000,-38.2,3.03e-7
1664866643,C;S;V;F,13.1,0x00c000,-38.2,1.51e-7
1664866644,C;S;V;F,13.1,0x00c000,-38.4,1.51e-7
1664866645,C;S;V;F,13.0,0x00c000,-38.4,1.51e-7
1664866646,C;S;V;F,,0x00c000,-38.5,1.51e-7
1664866647,C;S;V;F,12.7,0x00c000,-38.6,4.54e-7
1664866648,C;S;V;F,12.9,0x00c000,,7.57e-7
1664866649,C;S;V;F,13.0,0x00c000,-38.2,6.06e-7
1664866650,C;S;V;F,13.4,0x00c000,-37.8,1.51e-7
1664866651,C;S;V;F,13.9,0x00c000,-37.5,0.00e-0
1664866652,C;S;V;F,14.1,0x00c000,-37.3,0.00e-0
1664866653,C;S;V;F,14.0,0x00c000,-37.5,0.00e-0
1664866654,C;S;V;F,14.1,0x00c000,-37.9,0.00e-0
1664866655,C;S;V;F,13.6,0x00c000,-38.3,0.00e-0
1664866656,C;S;V;F,13.4,0x00c000,-38.4,0.00e-0
1664866657,,13.3,0x00c000,-38.3,
1664866658,C;S;V;F,13.7,0x00c000,-37.8,0.00e-0
1664866659,C;S;V;F,14.1,0x00c000,-37.1,0.00e-0
1664866660,C;S;V;F,,0x00c000,-36.6,0.00e-0
1664866661,C;S;V;F,15.4,0x00c000,-36.7,0.00e-0
1664866662,C;S;V;F,15.2,0x00c000,,0.00e-0
1664866665,C;S;V;F,13.8,0x00c000,-38.4,
1664866666,,13.1,0x00c000,-39.0,0.00e-0
1664866667,C;S;V;F,12.9,0x00c000,-39.1,0.00e-0
1664866668,C;S;V;F,,0x00c000,-38.7,3.03e-7
1664866669,C;S;V;F,13.0,0x00c000,-37.9,1.51e-7
1664866670,C;S;V;F,14.1,0x00c000,,0.00e-0
1664866672,C;S;V;F,14.9,0x00c000,-37.1,0.00e-0
1664866673,C;S;V;F,14.8,0x00c000,-37.2,0.00e-0
1664866674,C;S;V;F,14.9,0x00c000,-37.2,0.00e-0
1664866675,C;S;V;F,14.9,0x00c000,-37.2,0.00e-0
1664866676,C;S;V;F,14.9,0x00c000,-37.0,0.00e-0
1664866677,C;S;V;F,15.4,0x00c000,-36.6,0.00e-0
1664866678,C;S;V;F,15.5,0x00c000,-36.4,0.00e-0
1664866679,C;S;V;F,15.7,0x00c000,-36.4,
1664866680,,15.4,0x00c000,-36.7,0.00e-0
1664866681,C;S;V;F,15.4,0x00c000,-36.7,0.00e-0
1664866682,C;S;V;F,15.2,0x00c000,-37.1,0.00e-0
1664866683,C;S;V;F,,0x00c000,-36.7,0.00e-0
1664866684,C;S;V;F,15.4,0x00c000,-36.2,0.00e-0
1664866685,C;S;V;F,15.6,0x00c000,,0.00e-0
1664866686,C;S;V;F,16.0,0x00c000,-36.0,0.00e-0
1664866687,C;S;V;F,16.4,0x00c000,-35.7,0.00e-0
1664866688,C;S;V;F,16.6,0x00c000,-35.2,0.00e-0
1664866689,C;S;V;F,16.8,0x00c000,-35.2,0.00e-0
1664866690,C;S;V;F,17.1,0x00c000,-34.8,0.00e-0
1664866691,C;S;V;F,16.9,0x00c000,-34.7,0.00e-0
1664866692,C;S;V;F,17.1,0x00c000,-34.7,0.00e-0
1664866693,,17.1,0x00c000,-34.8,
1664866694,C;S;V;F,17.2,0x00c000,-34.8,0.00e-0
1664866695,C;S;V;F,,0x00c000,-35.1,0.00e-0
1664866696,C;S;V;F,17.1,0x00c000,-35.3,0.00e-0
1664866697,C;S;V;F,17.0,0x00c000,,0.00e-0
1664866698,C;S;V;F,16.9,0x00c000,-35.2,0.00e-0
1664866699,C;S;V;F,17.0,0x00c000,-34.8,0.00e-0
1664866700,C;S;V;F,17.1,0x00c000,-35.0,0.00e-0
1664866701,C;S;V;F,17.0,0x00c000,-34.8,0.00e-0
1664866702,C;S;V;F,17.3,0x00c000,-34.8,0.00e-0
1664866703,C;S;V;F,17.1,0x00c000,-34.8,0.00e-0
1664866704,C;S;V;F,17.2,0x00c000,-34.8,0.00e-0
1664866705,,17.2,0x00c000,-35.0,
1664866706,C;S;V;F,17.0,0x00c000,-35.1,0.00e-0
1664866707,C;S;V;F,17.0,0x00c000,-35.2,0.00e-0
1664866708,C;S;V;F,16.7,0x00c000,-35.2,0.00e-0
1664866709,C;S;V;F,,0x00c000,-35.6,0.00e-0
1664866710,C;S;V;F,16.5,0x00c000,,0.00e-0
1664866711,C;S;V;F,16.8,0x00c000,-35.6,0.00e-0
1664866712,C;S;V;F,16.7,0x00c000,-35.6,0.00e-0
1664866713,C;S;V;F,16.4,0x00c000,-35.6,0.00e-0
1664866714,C;S;V;F,16.4,0x00c000,-35.7,0.00e-0
1664866715,C;S;V;F,16.4,0x00c000,-35.9,0.00e-0
1664866716,C;S;V;F,16.3,0x00c000,-35.8,0.00e-0
1664866717,C;S;V;F,16.3,0x00c000,-35.7,0.00e-0
1664866718,C;S;V;F,16.3,0x00c000,-35.6,0.00e-0
1664866719,C;S;V;F,16.8,0x00c000,-35.2,
1664866720,,16.9,0x00c000,-34.8,0.00e-0
1664866721,C;S;V;F,17.0,0x00c000,-34.9,0.00e-0
1664866722,C;S;V;F,16.8,0x00c000,-35.3,0.00e-0
1664866723,C;S;V;F,16.8,0x00c000,-35.5,0.00e-0
1664866724,C;S;V;F,16.5,0x00c000,-35.7,0.00e-0
1664866725,C;S;V;F,,0x00c000,-36.2,0.00e-0
1664866726,C;S;V;F,16.1,0x00c000,-36.2,0.00e-0
1664866727,C;S;V;F,16.3,0x00c000,,0.00e-0
1664866728,C;S;V;F,16.1,0x00c000,-36.3,0.00e-0
1664866729,C;S;V;F,16.2,0x00c000,-36.2,0.00e-0
1664866730,C;S;V;F,16.3,0x00c000,-36.1,0.00e-0
1664866731,C;S;V;F,16.6,0x00c000,-35.7,0.00e-0
1664866732,C;S;V;F,16.8,0x00c000,-35.4,0.00e-0
1664866733,C;S;V;F,16.9,0x00c000,-35.2,0.00e-0
1664866735,,17.0,0x00c000,-34.9,
1664866736,C;S;V;F,,0x00c000,,0.00e-0
1664866737,C;S;V;F,17.3,0x00c000,-34.7,0.00e-0
1664866738,C;S;V;F,17.3,0x00c000,-34.6,0.00e-0
1664866739,C;S;V;F,17.5,0x00c000,-34.6,0.00e-0
1664866740,C;S;V;F,17.4,0x00c000,-34.7,0.00e-0
1664866741,C;S;V;F,17.4,0x00c000,-34.8,0.00e-0
1664866742,C;S;V;F,16.9,0x00c000,-35.1,0.00e-0
1664866743,C;S;V;F,16.7,0x00c000,-35.5,0.00e-0
1664866744,C;S;V;F,16.5,0x00c000,-35.7,0.00e-0
1664866745,C;S;V;F,16.7,0x00c000,-35.1,0.00e-0
1664866746,C;S;V;F,17.1,0x00c000,-34.8,
1664866747,,17.3,0x00c000,-34.6,0.00e-0
1664866748,C;S;V;F,17.5,0x00c000,-34.6,0.00e-0
1664866749,C;S;V;F,17.2,0x00c000,-34.9,0.00e-0
1664866750,C;S;V;F,,0x00c000,-35.2,0.00e-0
1664866751,C;S;V;F,16.7,0x00c000,-35.4,0.00e-0
1664866752,C;S;V;F,16.8,0x00c000,,0.00e-0
1664866753,C;S;V;F,17.1,0x00c000,-34.8,0.00e-0
1664866754,C;S;V;F,17.0,0x00c000,-34.8,0.00e-0
1664866755,C;S;V;F,17.1,0x00c000,-34.8,0.00e-0
1664866756,C;S;V;F,17.1,0x00c000,-35.3,0.00e-0
1664866757,C;S;V;F,16.5,0x00c000,-35.6,0.00e-0
1664866758,C;S;V;F,16.1,0x00c000,-36.0,0.00e-0
1664866759,C;S;V;F,16.0,0x00c000,-36.2,0.00e-0
1664866760,C;S;V;F,16.4,0x00c000,-35.7,0.00e-0
1664866761,C;S;V;F,16.7,0x00c000,-35.5,0.00e-0
1664866762,C;S;V;F,16.8,0x00c000,-35.3,0.00e-0
1664866763,C;S;V;F,16.6,0x00c000,-35.6,
1664866764,,15.9,0x00c000,-36.4,0.00e-0
1664866765,C;S;V;F,15.5,0x00c000,-36.9,0.00e-0
1664866766,C;S;V;F,15.3,0x00c000,-37.2,0.00e-0
1664866767,C;S;V;F,15.4,0x00c000,-37.0,0.00e-0
1664866768,C;S;V;F,,0x00c000,-36.0,0.00e-0
1664866769,C;S;V;F,15.9,0x00c000,,0.00e-0
1664866770,C;S;V;F,16.4,0x00c000,-35.7,0.00e-0
1664866771,C;S;V;F,16.4,0x00c000,-35.8,0.00e-0
1664866772,C;S;V;F,16.2,0x00c000,-36.3,0.00e-0
1664866773,C;S;V;F,15.8,0x00c000,-36.8,0.00e-0
1664866774,C;S;V;F,15.6,0x00c000,-36.7,0.00e-0
1664866775,C;S;V;F,15.7,0x00c000,-36.1,
1664866776,,16.4,0x00c000,-35.4,0.00e-0
1664866777,C;S;V;F,17.4,0x00c000,-35.0,0.00e-0
1664866778,C;S;V;F,17.1,0x00c000,-34.8,0.00e-0
1664866779,C;S;V;F,,0x00c000,-35.2,0.00e-0
1664866780,C;S;V;F,16.9,0x00c000,-35.6,0.00e-0
1664866781,C;S;V;F,16.3,0x00c000,-36.5,0.00e-0
1664866782,C;S;V;F,16.0,0x00c000,,0.00e-0
1664866783,C;S;V;F,15.8,0x00c000,-36.7,0.00e-0
1664866784,C;S;V;F,15.7,0x00c000,-36.5,0.00e-0
1664866785,C;S;V;F,16.0,0x00c000,-36.3,0.00e-0
1664866786,C;S;V;F,16.3,0x00c000,-35.7,0.00e-0
1664866787,C;S;V;F,16.4,0x00c000,-35.7,0.00e-0
1664866788,C;S;V;F,16.4,0x00c000,-35.8,0.00e-0
1664866789,C;S;V;F,16.1,0x00c000,-36.3,0.00e-0
1664866790,C;S;V;F,15.8,0x00c000,-36.6,
1664866791,,16.1,0x00c000,-36.6,0.00e-0
1664866792,C;S;V;F,16.4,0x00c000,-36.1,0.00e-0
1664866793,C;S;V;F,,0x00c000,-35.5,0.00e-0
1664866794,C;S;V;F,16.6,0x00c000,,0.00e-0
1664866795,C;S;V;F,16.9,0x00c000,-35.0,0.00e-0
1664866796,C;S;V;F,17.1,0x00c000,-35.0,0.00e-0
1664866798,C;S;V;F,16.9,0x00c000,-35.2,
1664866799,,16.5,0x00c000,-35.5,0.00e-0
1664866800,C;S;V;F,16.5,0x00c000,-35.6,0.00e-0
1664866801,C;S;V;F,16.9,0x00c000,-35.2,0.00e-0
1664866802,C;S;V;F,,0x00c000,-35.0,0.00e-0
1664866803,C;S;V;F,17.0,0x00c000,-34.8,0.00e-0
1664866804,C;S;V;F,17.3,0x00c000,,0.00e-0
1664866805,C;S;V;F,17.2,0x00c000,-34.7,0.00e-0
1664866806,C;S;V;F,17.0,0x00c000,-35.2,0.00e-0
1664866807,C;S;V;F,16.8,0x00c000,-35.2,0.00e-0
1664866808,C;S;V;F,16.7,0x00c000,-35.2,0.00e-0
1664866809,C;S;V;F,16.7,0x00c000,-35.3,0.00e-0
1664866810,C;S;V;F,16.8,0x00c000,-35.3,
1664866811,,16.8,0x00c000,-35.2,0.00e-0
1664866812,C;S;V;F,16.7,0x00c000,-35.0,0.00e-0
1664866813,C;S;V;F,16.8,0x00c000,-34.8,0.00e-0
1664866814,C;S;V;F,17.1,0x00c000,-34.7,0.00e-0
1664866815,C;S;V;F,17.2,0x00c000,-34.8,0.00e-0
1664866816,C;S;V;F,,0x00c000,-34.6,0.00e-0
1664866817,C;S;V;F,17.1,0x00c000,,0.00e-0
1664866818,C;S;V;F,17.2,0x00c000,-34.6,0.00e-0
1664866819,C;S;V;F,17.6,0x00c000,-34.4,0.00e-0
1664866820,C;S;V;F,17.4,0x00c000,-34.2,0.00e-0
1664866821,C;S;V;F,17.5,0x00c000,-34.1,0.00e-0
1664866822,C;S;V;F,17.6,0x00c000,-34.0,0.00e-0
1664866823,C;S;V;F,17.7,0x00c000,-34.2,0.00e-0
1664866824,C;S;V;F,17.6,0x00c000,-34.3,0.00e-0
1664866825,C;S;V;F,17.5,0x00c000,-34.4,0.00e-0
1664866826,,17.5,0x00c000,-34.6,
1664866827,C;S;V;F,17.2,0x00c000,-34.5,0.00e-0
1664866828,C;S;V;F,17.1,0x00c000,-34.8,0.00e-0
1664866829,C;S;V;F,,0x00c000,-34.8,0.00e-0
1664866830,C;S;V;F,17.1,0x00c000,-34.9,0.00e-0
1664866831,C;S;V;F,17.0,0x00c000,,0.00e-0
1664866832,C;S;V;F,17.1,0x00c000,-34.8,0.00e-0
1664866833,C;S;V;F,17.1,0x00c000,-34.9,0.00e-0
1664866834,C;S;V;F,16.9,0x00c000,-34.8,0.00e-0
1664866835,C;S;V;F,17.0,0x00c000,-34.8,0.00e-0
1664866836,C;S;V;F,17.0,0x00c000,-34.8,0.00e-0
1664866837,C;S;V;F,17.2,0x00c000,-34.4,0.00e-0
1664866838,C;S;V;F,17.5,0x00c000,-34.6,
1664866839,,17.3,0x00c000,-34.3,0.00e-0
1664866840,C;S;V;F,,,,0.00e-0
1664866841,C;S;V;F,17.3,0x00c000,-34.4,0.00e-0
1664866842,C;S;V;F,17.1,0x00c000,-34.7,0.00e-0